Flag for Spain Weather past 2 weeks in Torrevieja, Spain

Now
81 °F

Passing clouds.


Feels Like: 84 °F
Forecast: 75 / 91 °F
Wind: 15 mph from Northeast

Location: Murcia / San Javier

Current Time: Jul 1, 2015 at 9:35:09 AM

Latest Report: Jul 1, 2015 at 9:00 AM


Visibility: N/A

Pressure: 29.95 "Hg

Humidity: 70%

Dew point: 70 °F

Location of TorreviejaLocation

Historic Weather in Torrevieja — Graph

°F

Torrevieja temperature yesterday

Maximum temperature yesterday: 86 °F (at 1:00 PM)
Minimum temperature yesterday: 72 °F (at 7:00 AM)
Average temperature yesterday: 82 °F

Past Weeks' High & Low Weather Summary

 TemperatureHumidityPressure
High91 °F (Jun 28, 1:00 PM)89% (Jun 29, 8:00 AM)30.18 "Hg (Jun 29, 8:00 AM)
Low61 °F (Jun 17, 7:00 AM)25% (Jun 27, 1:00 PM)29.83 "Hg (Jun 23, 3:00 PM)
Average79 °F60%30.06 "Hg
* Reported Jun 16 8:00 AM — Jul 1 8:00 AM, Torrevieja, Weather by CustomWeather, © 2015

Note: Actual official high and low records may vary slightly from our data, if they occured in-between our weather recording intervals... More about our weather records

Advertising

Torrevieja weather history for previous 24 hours

 ConditionsComfort  
Time TempWeatherWind HumidityBarometerVisibility
8:00 AM
Wed, Jul 1
79 °FPassing clouds.5 mph65%29.95 "HgN/A
7:00 AM75 °FClear.6 mph61%29.95 "Hg10 mi
11:00 PM
Tue, Jun 30
79 °FClear.7 mph70%29.98 "Hg10 mi
10:00 PM81 °FSunny.12 mph66%29.98 "Hg10 mi
9:00 PM81 °FSunny.12 mph74%29.98 "Hg10 mi
8:00 PM81 °FPassing clouds.13 mph74%29.95 "HgN/A
7:00 PM82 °FPassing clouds.14 mph70%29.95 "HgN/A
6:00 PM82 °FPassing clouds.14 mph70%29.98 "HgN/A
5:00 PM84 °FPassing clouds.13 mph62%29.98 "HgN/A
4:00 PM84 °FPassing clouds.13 mph62%30.01 "HgN/A
3:00 PM84 °FPassing clouds.14 mph58%30.01 "HgN/A
2:00 PM84 °FPassing clouds.13 mph55%30.04 "HgN/A
1:00 PM86 °FPassing clouds.14 mph49%30.04 "HgN/A
12:00 PM84 °FPassing clouds.13 mph55%30.04 "HgN/A
11:00 AM84 °FPassing clouds.14 mph58%30.04 "HgN/A
10:00 AM82 °FSunny.15 mph58%30.04 "Hg10 mi
9:00 AM82 °FPassing clouds.12 mph42%30.04 "HgN/A
Weather by CustomWeather, © 2015

See weather overviewHow to use our weather pages